Погода в Горках

Украина / Волынская область     51°55′06″N   25°18′55″E
темп.,
°C
ветер,
м/с
пор.,
м/с
влажн.,
%
обл.,
%
осадки,
мм/ч
давл.,
гПа
погр.,
м
14 апреля, ср
ср1400:00+4ссз6108899 0.0 1018400
03:00+5с5986100 0.0 1017413
06:00+5с5885100 0.0 1016408
09:00+5с5884100 0.0 1015379
12:00+6с5683100 0.0 1015515
15:00+5ссз5793100 1.6 1014392
18:00+5ссз4795100 1.2 1014332
21:00+4ссз4796100 2.1 1015301
15 апреля, чт
чт1500:00+4сз3496100 0.5 1014203
03:00+4з2295100 0.6 1014161
06:00+4зюз2395100 0.3 1015168
09:00+5зюз228899 0.4 1016281
12:00+9з1174100 0.0 1016609
15:00+10зсз2270100 0.1 1015808
18:00+10сз3576100 0.1 1015520
21:00+8ссз4789100 0.1 1016329
16 апреля, пт
пт1600:00+7ссз3594100 0.0 1015351
03:00+6сз4693100 0.0 1014364
06:00+5зсз4694100 0.2 1014366
09:00+5зсз4796100 1.4 1014343
12:00+6сз3496100 2.2 1014258
15:00+10зсз448396 2.3 1015523
18:00+9сз259251 0.7 1014220
21:00+8ссв229240 2.4 101528
17 апреля, сб
сб1700:00+7всв3394100 0.3 101663
03:00+7св2593100 0.6 1017169
06:00+7св41092100 0.1 1018377
09:00+8всв598265 0.1 1018614
12:00+10вюв6876100 0.3 10191053
15:00+9вюв5781100 0.4 1020705
18:00+8вюв4784100 0.1 1021589
21:00+6вюв349379 0.2 1022103
18 апреля, вс
вс1800:00+5юв229582 0.0 102217
03:00+6в1189100 0.0 102228
06:00+5в239227 0.0 102266
09:00+8в237720 0.0 1022271
12:00+12в3462100 0.0 10221069
15:00+12всв4576100 0.2 1021699
18:00+12в3581100 0.6 1021564
21:00+9вюв4890100 1.1 1022232